Rbgn^[z[y[W
メイン
   新天体発見情報
     Comet P/2021 R3 (PANSTARRS)
投稿するにはまず登録を

フラット表示 前のトピック | 次のトピック
投稿者 スレッド
佐藤裕久
投稿日時: 2021-9-27 13:45
モデレータ
登録日: 2005-6-12
居住地: 日本
投稿: 2424
オンライン
Comet P/2021 R3 (PANSTARRS)

9月5日、ハワイ HaleakalaにあるPan-STARRS1 1.8-m Ritchey-Chretien反射望遠鏡で得たサーベイ
画像から小惑星状天体が発見された。
発見前の観測が、7月にPan-STARRS1と、8月にPan-STARRS2によるものがあった。
小惑星センターのPCCP webpageに公表後、M. Jaeger (Vienna, オーストリア, 9月5.9日UT、200秒
露出16枚のスタック, 30-cm 反射望遠鏡, Stixendorf: 10"のコマらしいものが見えたと"ICQ Comet 
Observations" Facebook page に報告した)や佐藤英貴氏(東京都文京区, 9月7.3日, 60秒露出20枚の
スタック, 0.43-m f/6.8 アストログラフ, Mayhill近郊, ニューメキシコ州, 米国, 遠隔操作: 強く
集光した8"のコマが見えるが、尾はない。5".7の円形範囲で測定した光度は20.8等であった)らCCD
位置観測者によって彗星状と観測された。

彗星機能の報告は次の通り、

OC   Date        Reporter           Coma    Tail    PA          Exposures
568  2021-09-06  R. Weryk           0".3      4"    140-220       3x60s
H06  2021-09-07  H. Sato            8"                           20x60s
K51  2021-09-09  R. Furgoni        10"                           15x120s
A71  2021-09-10  M. Jaeger          9"                          10x180s, 15x200s

発見位置は次のとおり、

     2021 UT             R.A. (2000) Decl.       Mag.
     July  9.55425   22 21 20.18   - 2 16 00.3   22.1
           9.56617   22 21 19.97   - 2 15 53.1   22.1
           9.57807   22 21 19.78   - 2 15 46.8   22.0
           9.59002   22 21 19.58   - 2 15 39.4   22.1
          14.50129   22 19 46.15   - 1 29 52.7   21.5
          14.51295   22 19 45.88   - 1 29 46.1   21.8
          14.52464   22 19 45.58   - 1 29 40.3   21.5
          14.53631   22 19 45.31   - 1 29 33.5   21.1
          17.60782   22 18 27.93   - 1 02 15.4   22.2
     Aug.  3.45577   22 07 40.45   + 1 05 56.0   20.9
           3.46736   22 07 39.86   + 1 06 00.4   21.2
           7.33308   22 04 28.22   + 1 29 28.5   21.5
           7.34598   22 04 27.53   + 1 29 33.0   21.6
           7.35884   22 04 26.86   + 1 29 37.5   21.7
          11.41975   22 00 53.97   + 1 51 37.6   20.6
          11.43298   22 00 53.24   + 1 51 41.5   21.5
          11.44618   22 00 52.51   + 1 51 45.8   20.9
          12.36833   22 00 03.15   + 1 56 22.4   21.0
          12.38010   22 00 02.50   + 1 56 26.0   21.1
          13.53638   21 58 59.62   + 2 02 00.9   20.5
          13.54713   21 58 59.02   + 2 02 04.1   20.9
          25.44049   21 48 09.53   + 2 47 02.6   21.3
          25.46443   21 48 08.19   + 2 47 06.4   20.9
          30.35210   21 43 53.13   + 2 59 22.7   21.5
          30.36367   21 43 52.51   + 2 59 24.3   21.3
          30.37528   21 43 51.91   + 2 59 25.8   21.4
     Sept. 5.31938   21 39 05.22   + 3 10 05.7   21.4
           5.33194   21 39 04.63   + 3 10 06.7   21.2
           5.34444   21 39 04.04   + 3 10 07.6   21.4
           5.35698   21 39 03.44   + 3 10 08.9   21.4

MPCの楕円軌道要素、位置推算表は次のとおり、

Orbital elements:
    P/2021 R3 (PANSTARRS)                                                       
Epoch 2021 May 26.0 TT = JDT 2459360.5                                          
T 2021 May 27.33684 TT                                  Rudenko                 
q   2.5255661            (2000.0)            P               Q                  
n   0.13412967     Peri.    3.06429     +0.60360647     +0.74581168             
a   3.7796607      Node   304.25486     -0.73855135     +0.38989027             
e   0.3318008      Incl.   19.93575     -0.30033504     +0.54013935             
P   7.35                                                                        
From 60 observations 2021 July 9-Sept. 10, mean residual 0".4.                  
                                                                                
    P/2021 R3 (PANSTARRS)                                                       
Epoch 2028 Sept. 26.0 TT = JDT 2462040.5                                        
T 2028 Sept. 15.85367 TT                                Rudenko                 
q   2.5102447            (2000.0)            P               Q                  
n   0.13486039     Peri.    2.69940     +0.59791289     +0.75026833             
a   3.7659954      Node   304.18832     -0.74165972     +0.38431995             
e   0.3334446      Incl.   19.94201     -0.30404117     +0.53795502             
P   7.31                                                                        
From 60 observations 2021 July 9-Sept. 10, mean residual 0".4.                  
                                                                                
    P/2021 R3 (PANSTARRS)                                                       
Epoch 2021 July 5.0 TT = JDT 2459400.5                                          
T 2021 May 27.26400 TT                                  Rudenko                 
q   2.5255441            (2000.0)            P               Q                  
n   0.13410377     Peri.    3.04409     +0.60333439     +0.74603873             
a   3.7801472      Node   304.25418     -0.73869457     +0.38963629             
e   0.3318927      Incl.   19.93423     -0.30052944     +0.54000905             
P   7.35                                                                        
From 60 observations 2021 July 9-Sept. 10, mean residual 0".4.                  
                                                                                
Ephemeris:
Date    TT    R. A. (2000) Decl.     Delta      r    Elong.  Phase   m1
2021 08 12    22 00 22.8 +01 54 35   1.5903  2.5701   161.1     7.3  21.1
...
2021 08 27    21 46 46.7 +02 51 21   1.6017  2.5888   164.3     6.1  21.2
...
2021 09 04    21 40 06.0 +03 08 07   1.6316  2.5999   159.4     7.8  21.2
...
2021 09 10    21 35 44.4 +03 15 44   1.6645  2.6089   154.3     9.6  21.3
2021 09 11    21 35 04.9 +03 16 40   1.6708  2.6104   153.4     9.9  21.3
2021 09 12    21 34 26.7 +03 17 31   1.6773  2.6119   152.5    10.2  21.3
...
2021 09 18    21 31 06.1 +03 21 10   1.7214  2.6215   146.9    12.1  21.4
...
2021 09 26    21 28 00.8 +03 23 22   1.7917  2.6349   139.4    14.3  21.5
...
2021 10 11    21 26 42.8 +03 26 12   1.9541  2.6620   125.6    17.8  21.7

(MPEC 2021-R255、CBET 5036)

フラット表示 前のトピック | 次のトピック

題名 投稿者 日時
 » Comet P/2021 R3 (PANSTARRS) 佐藤裕久 2021-9-27 13:45

投稿するにはまず登録を
 
© 1999 Tsutomu Seki.